CW2522 Weather Reports


time (UTC)temp
C
wind
direction
speed
KPH
gust
KPH
rain 1hr
cm
rain 24hr
cm
rain mn
cm
humidity
%
barometer
mb
20260504141026 15 115 6.4 22.5 0.00 0.00 0.00 65 1011.3
20260504140526 15 234 8.0 22.5 0.00 0.00 0.00 64 1011.3
20260504130542 13 121 9.7 17.7 0.00 0.00 0.00 66 1011.8
20260504110536 6 110 3.2 9.7 0.00 0.00 0.00 91 1012.1
20260504100526 4 148 3.2 8.0 0.00 0.00 0.00 92 1011.8
20260504081544 3 67 1.6 4.8 0.00 0.00 0.00 91 1011.2
20260504081038 3 113 1.6 4.8 0.00 0.00 0.00 91 1011.2
20260504080535 3 110 1.6 6.4 0.00 0.00 0.00 91 1011.2
20260504050535 5 41 0.0 4.8 0.00 0.00 0.00 85 1011.2
20260504045556 5 41 0.0 1.6 0.00 0.00 0.00 85 1011.2
20260504045057 5 41 0.0 3.2 0.00 0.00 0.00 84 1011.2
20260504044535 5 41 1.6 3.2 0.00 0.00 0.00 84 1011.3
20260504044036 5 41 1.6 3.2 0.00 0.00 0.00 83 1011.3
20260504043556 5 41 1.6 3.2 0.00 0.00 0.00 82 1011.4
20260504043037 5 41 0.0 1.6 0.00 0.00 0.00 81 1011.3
20260504042537 5 41 0.0 1.6 0.00 0.00 0.00 81 1011.3
20260504042042 5 41 0.0 1.6 0.00 0.00 0.00 80 1011.2
20260504041542 5 41 0.0 1.6 0.00 0.00 0.00 80 1011.2
20260504041043 5 41 0.0 0.0 0.00 0.00 0.00 79 1011.2
20260504040542 5 41 0.0 1.6 0.00 0.00 0.00 79 1011.1
20260504040043 5 41 0.0 1.6 0.00 0.00 0.00 79 1011.1
20260504035529 5 41 0.0 1.6 0.00 0.00 0.00 79 1011.1
20260504035031 5 41 1.6 3.2 0.00 0.00 0.00 79 1011.1
20260504034531 5 41 1.6 3.2 0.00 0.00 0.00 79 1011.1
20260504034033 5 41 0.0 0.0 0.00 0.00 0.00 79 1011.1
20260504033532 5 41 0.0 0.0 0.00 0.00 0.00 79 1011.1
20260504033053 5 41 0.0 0.0 0.00 0.00 0.00 79 1011.0
20260504032553 5 41 0.0 0.0 0.00 0.00 0.00 79 1011.0
20260504032034 5 41 0.0 0.0 0.00 0.00 0.00 79 1011.0
20260504031533 5 41 0.0 1.6 0.00 0.00 0.00 79 1011.0
20260504031034 5 41 0.0 3.2 0.00 0.00 0.00 79 1011.0
20260504030535 5 41 1.6 3.2 0.00 0.00 0.00 78 1010.9
20260504030035 5 41 1.6 3.2 0.00 0.00 0.00 78 1010.9
20260504025539 5 41 1.6 3.2 0.00 0.00 0.00 79 1010.8
20260504025040 5 41 0.0 3.2 0.00 0.00 0.00 78 1010.8
20260504024541 5 41 0.0 3.2 0.00 0.00 0.00 78 1010.8
20260504024041 5 41 0.0 1.6 0.00 0.00 0.00 78 1010.8
20260504023540 5 41 0.0 3.2 0.00 0.00 0.00 78 1010.8
20260504023040 5 41 1.6 3.2 0.00 0.00 0.00 77 1010.9
20260504022541 5 41 0.0 3.2 0.00 0.00 0.00 76 1010.8
20260504022042 5 41 1.6 3.2 0.00 0.00 0.00 76 1010.8
20260504021542 5 41 0.0 1.6 0.00 0.00 0.00 75 1010.9
20260504021042 5 41 0.0 1.6 0.00 0.00 0.00 74 1010.8
20260504020544 5 41 0.0 1.6 0.00 0.00 0.00 74 1010.8
20260504020041 5 41 0.0 3.2 0.00 0.00 0.00 73 1010.8
20260504015524 5 41 1.6 3.2 0.00 0.00 0.00 73 1010.8
20260504015025 5 41 0.0 3.2 0.00 0.00 0.00 72 1010.8
20260504014526 5 41 1.6 3.2 0.00 0.00 0.00 72 1010.7
20260504014025 5 41 1.6 3.2 0.00 0.00 0.00 70 1010.7
20260504013545 6 41 0.0 3.2 0.00 0.00 0.00 70 1010.6
20260504013025 6 41 1.6 3.2 0.00 0.00 0.00 71 1010.6
20260504012525 5 41 0.0 1.6 0.00 0.00 0.00 70 1010.5
20260504012045 5 41 0.0 1.6 0.00 0.00 0.00 71 1010.5
20260504011525 5 41 0.0 1.6 0.00 0.00 0.00 69 1010.4
20260504011024 6 41 0.0 0.0 0.00 0.00 0.00 69 1010.4
20260504010546 6 41 0.0 1.6 0.00 0.00 0.00 70 1010.3
20260504010025 6 41 1.6 1.6 0.00 0.00 0.00 68 1010.1
20260504005526 6 41 0.0 3.2 0.00 0.00 0.00 68 1010.1
20260504005026 6 41 1.6 3.2 0.00 0.00 0.00 68 1010.1
20260504004528 6 41 1.6 3.2 0.00 0.00 0.00 68 1010.0
20260504004028 6 41 0.0 3.2 0.00 0.00 0.00 68 1010.0
20260504003533 7 41 0.0 1.6 0.00 0.00 0.00 67 1009.9
20260504002539 7 41 0.0 3.2 0.00 0.00 0.00 65 1009.8
20260504002044 7 41 0.0 1.6 0.00 0.00 0.00 65 1009.7
20260504001524 7 41 0.0 1.6 0.00 0.00 0.00 68 1009.6
20260504001025 7 41 0.0 3.2 0.00 0.00 0.00 66 1009.6
20260504000526 7 41 0.0 4.8 0.00 0.00 0.00 64 1009.5
20260504000046 7 41 1.6 4.8 0.00 0.00 0.00 64 1009.4
20260503235546 7 346 1.6 3.2 0.00 0.00 0.00 66 1009.3
20260503235026 7 346 1.6 3.2 0.00 0.00 0.00 65 1009.3
20260503234527 7 346 1.6 3.2 0.00 0.00 0.00 66 1009.2
20260503234026 7 344 0.0 3.2 0.00 0.00 0.00 66 1009.2
20260503233527 7 344 1.6 3.2 0.00 0.00 0.00 63 1009.1
20260503233026 7 344 1.6 3.2 0.00 0.00 0.00 62 1009.0
20260503232526 7 344 1.6 3.2 0.00 0.00 0.00 61 1008.9
20260503232025 8 344 1.6 9.7 0.00 0.00 0.00 62 1009.0
20260503231526 8 336 3.2 12.9 0.00 0.00 0.00 59 1009.0
20260503231031 8 5 3.2 17.7 0.00 0.00 0.00 58 1008.9
20260503230552 8 317 3.2 17.7 0.00 0.00 0.00 61 1008.9
20260503230030 8 111 3.2 16.1 0.00 0.00 0.00 58 1008.8
20260503225530 8 15 4.8 17.7 0.00 0.00 0.00 60 1008.9
20260503225029 8 26 8.0 17.7 0.00 0.00 0.00 61 1008.9
20260503224529 8 60 1.6 9.7 0.00 0.00 0.00 62 1008.9
20260503224029 8 38 1.6 16.1 0.00 0.00 0.00 60 1008.8
20260503223531 8 360 6.4 16.1 0.00 0.00 0.00 61 1008.8
20260503223030 8 87 1.6 9.7 0.00 0.00 0.00 63 1008.8
20260503222530 8 105 3.2 16.1 0.00 0.00 0.00 63 1008.8
20260503222032 9 119 4.8 16.1 0.00 0.00 0.00 59 1008.7
20260503221532 9 105 4.8 19.3 0.00 0.00 0.00 58 1008.7
20260503221034 9 46 4.8 24.1 0.00 0.00 0.00 61 1008.7
20260503220535 9 12 12.9 24.1 0.00 0.00 0.00 60 1008.8
20260503220040 9 128 6.4 14.5 0.00 0.00 0.00 60 1008.7
20260503215539 10 84 4.8 20.9 0.00 0.00 0.00 61 1008.7
20260503215040 10 360 8.0 19.3 0.00 0.00 0.00 58 1008.7
20260503214540 10 80 4.8 17.7 0.00 0.00 0.00 58 1008.6
20260503214040 10 9 3.2 16.1 0.00 0.00 0.00 59 1008.7
20260503213540 10 350 8.0 16.1 0.00 0.00 0.00 61 1008.7
20260503213040 9 19 6.4 16.1 0.00 0.00 0.00 60 1008.7
20260503212600 9 21 8.0 19.3 0.00 0.00 0.00 62 1008.6
20260503212039 9 5 9.7 19.3 0.00 0.00 0.00 62 1008.7
20260503211540 9 25 4.8 27.4 0.00 0.00 0.00 61 1008.7
20260503211042 9 34 16.1 27.4 0.00 0.00 0.00 60 1008.6
20260503210541 9 5 11.3 25.7 0.00 0.00 0.00 62 1008.7
20260503210040 9 5 9.7 24.1 0.00 0.00 0.00 62 1008.5
20260503205540 9 338 8.0 29.0 0.00 0.00 0.00 61 1008.7
20260503205045 9 335 11.3 29.0 0.00 0.00 0.00 60 1008.8
20260503204544 9 58 8.0 27.4 0.00 0.00 0.00 60 1008.6
20260503204025 9 40 16.1 27.4 0.00 0.00 0.00 60 1008.6
20260503203525 9 308 11.3 29.0 0.00 0.00 0.00 61 1008.6
20260503203026 9 36 12.9 29.0 0.00 0.00 0.00 62 1008.7
20260503202526 9 327 14.5 24.1 0.00 0.00 0.00 61 1008.6
20260503202027 10 355 14.5 24.1 0.00 0.00 0.00 61 1008.5
20260503201526 10 12 12.9 30.6 0.00 0.00 0.00 62 1008.6
20260503201047 10 338 17.7 30.6 0.00 0.00 0.00 59 1008.7
20260503200546 10 338 11.3 25.7 0.00 0.00 0.00 61 1008.7
20260503200027 10 331 12.9 33.8 0.00 0.00 0.00 62 1008.7
20260503195526 10 331 9.7 33.8 0.00 0.00 0.00 65 1008.7
20260503195027 10 202 6.4 29.0 0.00 0.00 0.00 61 1008.6
20260503194528 10 313 11.3 25.7 0.00 0.00 0.00 61 1008.9
20260503194029 10 360 9.7 25.7 0.00 0.00 0.00 62 1008.8
20260503193531 10 20 8.0 17.7 0.00 0.00 0.00 61 1008.7
20260503193032 10 5 6.4 25.7 0.00 0.00 0.00 62 1008.8
20260503192532 10 300 14.5 27.4 0.00 0.00 0.00 63 1009.0
20260503192033 10 112 8.0 27.4 0.00 0.00 0.00 66 1008.7
20260503191534 9 272 14.5 38.6 0.00 0.00 0.00 62 1008.7
20260503191034 8 23 16.1 38.6 0.00 0.00 0.00 65 1008.8
20260503190534 8 16 9.7 29.0 0.00 0.00 0.00 64 1008.9
20260503190033 8 103 9.7 29.0 0.00 0.00 0.00 65 1008.8
20260503185534 10 51 14.5 24.1 0.00 0.00 0.00 64 1008.9
20260503184545 10 188 8.0 19.3 0.00 0.00 0.00 65 1008.8
20260503184024 10 15 11.3 19.3 0.00 0.00 0.00 64 1008.8
20260503183544 10 282 9.7 24.1 0.00 0.00 0.00 64 1008.7
20260503183044 9 38 12.9 24.1 0.00 0.00 0.00 64 1009.0
20260503182524 9 61 6.4 27.4 0.00 0.00 0.00 65 1008.9
20260503182025 9 31 9.7 27.4 0.00 0.00 0.00 63 1008.8
20260503181037 8 337 16.1 33.8 0.00 0.00 0.00 64 1008.9
20260503180538 9 333 17.7 27.4 0.00 0.00 0.00 64 1008.6
20260503180044 9 327 8.0 33.8 0.00 0.00 0.00 67 1008.9
20260503175604 9 347 16.1 33.8 0.00 0.00 0.00 62 1008.6
20260503175104 9 360 11.3 29.0 0.00 0.00 0.00 63 1008.8
20260503174542 9 14 16.1 30.6 0.00 0.00 0.00 62 1008.8
20260503174043 9 54 17.7 29.0 0.00 0.00 0.00 62 1008.6
20260503173544 8 5 12.9 24.1 0.00 0.00 0.00 64 1008.8
20260503173024 9 340 14.5 30.6 0.00 0.00 0.00 64 1008.8
20260503172524 9 331 16.1 30.6 0.00 0.00 0.00 63 1008.7
20260503172025 9 55 12.9 29.0 0.00 0.00 0.00 63 1008.9
20260503171525 8 52 11.3 33.8 0.00 0.00 0.00 66 1008.8
20260503171026 8 26 8.0 20.9 0.00 0.00 0.00 65 1008.7
20260503170526 8 360 6.4 20.9 0.00 0.00 0.00 69 1008.8
20260503150529 6 24 6.4 33.8 0.00 0.00 0.00 88 1009.7